Hoquiam, WA
on Monday, November 12, 2012

Monday
Previous Day Next Day
Daily Summary
 ActualAverageRecord
Temperature
Mean Temperature °F 47°F  
Max Temperature 54°F 52°F 61°F (1976)
Min Temperature 46°F 41°F 17°F (1955)
Degree Days
Heating Degree Days 15 18  
Month to date heating degree days 207  
Cooling Degree Days 0 0  
Month to date cooling degree days 0  
Year to date cooling degree days 23  
Moisture
Dew Point 49°F   
Average Humidity 95    
Maximum Humidity 100    
Minimum Humidity 82    
Precipitation
Precipitation 0.29 in 0.37 in 2.87 in (2008)
Month to date precipitation 4.28  
Year to date precipitation 50.70  
Wind
Wind Speed 9 mph   
Max Wind Speed 23 mph   
Max Gust Speed 39 mph   
Visibility 7 miles   
Events Fog , Rain   

Key: T is trace of precipitation, MM is missing value
Source: NWS Daily Summary
Time(PST)TemperatureDew PointHumidity Pressure Visibility Wind DirectionWind SpeedGust SpeedPrecipitationEvents Conditions
12:04 AM 51.8°F 48.2°F 88% 30.02 in 3.0 miles SSE 21.9 mph 39.1 mph N/A   Overcast
12:53 AM 52.0°F 50.0°F 93% 30.03 in 8.0 miles South 23.0 mph 32.2 mph 0.01 in   Overcast
1:12 AM 51.8°F 50.0°F 94% 30.02 in 7.0 miles South 19.6 mph 31.1 mph N/A   Overcast
1:36 AM 51.8°F 50.0°F 94% 30.02 in 2.0 miles South 18.4 mph - 0.01 in   Overcast
1:53 AM 51.1°F 51.1°F 100% 30.04 in 2.5 miles South 15.0 mph - 0.05 in Rain Rain
2:05 AM 51.8°F 51.8°F 100% 30.03 in 3.0 miles South 12.7 mph - 0.03 in Rain Light Rain
2:15 AM 51.8°F 51.8°F 100% 30.04 in 1.8 miles South 11.5 mph - 0.09 in Rain Rain
2:24 AM 51.8°F 51.8°F 100% 30.04 in 2.0 miles South 9.2 mph - 0.13 in Rain Rain
2:31 AM 51.8°F 51.8°F 100% 30.04 in 2.0 miles SSW 6.9 mph - 0.15 in Rain Light Rain
2:37 AM 51.8°F 50.0°F 94% 30.04 in 3.0 miles South 6.9 mph - 0.16 in Rain Light Rain
2:53 AM 51.1°F 50.0°F 96% 30.05 in 4.0 miles South 10.4 mph - 0.16 in Rain Light Rain
3:35 AM 51.8°F 51.8°F 100% 30.04 in 2.5 miles SW 4.6 mph - 0.02 in   Overcast
3:53 AM 50.0°F 50.0°F 100% 30.06 in 2.0 miles SSW 4.6 mph - 0.02 in   Overcast
4:02 AM 50.0°F 50.0°F 100% 30.05 in 1.8 miles SW 3.5 mph - 0.01 in   Overcast
4:21 AM 51.8°F 50.0°F 94% 30.05 in 3.0 miles West 3.5 mph - 0.02 in Rain Light Rain
4:37 AM 50.0°F 50.0°F 100% 30.05 in 5.0 miles Calm Calm - 0.02 in   Overcast
4:44 AM 50.0°F 48.2°F 94% 30.05 in 9.0 miles West 4.6 mph - 0.02 in   Overcast
4:53 AM 50.0°F 48.9°F 96% 30.07 in 7.0 miles WNW 3.5 mph - 0.02 in   Overcast
5:04 AM 50.0°F 48.2°F 94% 30.06 in 4.0 miles West 3.5 mph - N/A   Overcast
5:11 AM 50.0°F 48.2°F 94% 30.06 in 4.0 miles NNW 5.8 mph - N/A   Overcast
5:29 AM 48.2°F 48.2°F 100% 30.07 in 9.0 miles Calm Calm - N/A   Overcast
5:53 AM 48.0°F 46.9°F 96% 30.09 in 10.0 miles NW 3.5 mph - N/A   Overcast
6:12 AM 48.2°F 46.4°F 93% 30.09 in 10.0 miles Calm Calm - N/A   Overcast
6:23 AM 46.4°F 46.4°F 100% 30.09 in 10.0 miles Calm Calm - N/A   Overcast
6:34 AM 46.4°F 46.4°F 100% 30.09 in 10.0 miles ENE 3.5 mph - N/A   Overcast
6:53 AM 48.0°F 46.9°F 96% 30.11 in 10.0 miles Calm Calm - N/A   Overcast
7:17 AM 46.4°F 46.4°F 100% 30.11 in 10.0 miles NNE 3.5 mph - N/A   Overcast
7:28 AM 46.4°F 46.4°F 100% 30.11 in 7.0 miles North 3.5 mph - N/A   Overcast
7:53 AM 46.9°F 46.0°F 97% 30.13 in 10.0 miles Calm Calm - N/A   Overcast
8:07 AM 46.4°F 46.4°F 100% 30.12 in 10.0 miles Calm Calm - N/A   Overcast
8:23 AM 46.4°F 46.4°F 100% 30.12 in 10.0 miles NE 4.6 mph - N/A   Overcast
8:40 AM 46.4°F 46.4°F 100% 30.13 in 1.2 miles NE 4.6 mph - N/A   Overcast
8:53 AM 46.9°F 46.9°F 100% 30.14 in 0.2 miles ENE 4.6 mph - N/A Fog Fog
9:12 AM 48.2°F 48.2°F 100% 30.13 in 0.2 miles Calm Calm - N/A Fog Fog
9:20 AM 48.2°F 48.2°F 100% 30.13 in 0.2 miles Calm Calm - N/A Fog Fog
9:31 AM 48.2°F 48.2°F 100% 30.13 in 0.2 miles East 4.6 mph - N/A Fog Fog
9:53 AM 48.9°F 48.9°F 100% 30.14 in 0.2 miles East 4.6 mph - N/A Fog Fog
10:03 AM 48.2°F 48.2°F 100% 30.14 in 1.0 miles East 4.6 mph - N/A   Overcast
10:10 AM 48.2°F 48.2°F 100% 30.14 in 3.0 miles East 4.6 mph - N/A   Overcast
10:27 AM 50.0°F 50.0°F 100% 30.14 in 6.0 miles Calm Calm - N/A   Overcast
10:50 AM 51.8°F 50.0°F 94% 30.15 in 10.0 miles Calm Calm - N/A   Overcast
10:53 AM 51.1°F 51.1°F 100% 30.16 in 10.0 miles Calm Calm - N/A   Overcast
11:04 AM 51.8°F 51.8°F 100% 30.15 in 10.0 miles Calm Calm - N/A   Overcast
11:53 AM 53.1°F 50.0°F 89% 30.16 in 10.0 miles Calm Calm - N/A   Overcast
12:53 PM 54.0°F 50.0°F 86% 30.16 in 10.0 miles SSW 3.5 mph - N/A   Overcast
1:53 PM 53.1°F 48.9°F 86% 30.16 in 10.0 miles South 8.1 mph - N/A   Overcast
2:24 PM 53.6°F 48.2°F 82% 30.15 in 10.0 miles South 6.9 mph - N/A   Overcast
2:31 PM 53.6°F 48.2°F 82% 30.15 in 10.0 miles South 8.1 mph - N/A   Overcast
2:53 PM 53.1°F 48.9°F 86% 30.17 in 10.0 miles South 6.9 mph - N/A   Overcast
3:05 PM 51.8°F 48.2°F 88% 30.15 in 10.0 miles South 6.9 mph - N/A   Overcast
3:53 PM 52.0°F 48.9°F 89% 30.17 in 10.0 miles SSE 4.6 mph - N/A   Overcast
4:12 PM 51.8°F 48.2°F 88% 30.16 in 10.0 miles SSE 8.1 mph - N/A   Overcast
4:53 PM 51.1°F 48.9°F 92% 30.18 in 10.0 miles SSE 5.8 mph - N/A   Overcast
5:33 PM 51.8°F 48.2°F 88% 30.17 in 10.0 miles South 5.8 mph - N/A   Overcast
5:53 PM 50.0°F 48.9°F 96% 30.18 in 10.0 miles South 4.6 mph - N/A   Overcast
6:53 PM 51.1°F 48.9°F 92% 30.19 in 10.0 miles Calm Calm - N/A   Overcast
7:05 PM 50.0°F 48.2°F 94% 30.18 in 10.0 miles Calm Calm - N/A   Overcast
7:29 PM 50.0°F 48.2°F 94% 30.18 in 10.0 miles Calm Calm - N/A   Overcast
7:53 PM 50.0°F 48.9°F 96% 30.19 in 10.0 miles Calm Calm - N/A   Overcast
8:53 PM 50.0°F 48.9°F 96% 30.20 in 10.0 miles SE 3.5 mph - N/A   Overcast
9:29 PM 51.8°F 48.2°F 88% 30.19 in 10.0 miles SSE 4.6 mph - N/A   Overcast
9:37 PM 51.8°F 48.2°F 88% 30.19 in 10.0 miles SSE 4.6 mph - N/A   Overcast
9:53 PM 51.1°F 48.9°F 92% 30.21 in 10.0 miles SSE 4.6 mph - N/A   Overcast
10:06 PM 51.8°F 48.2°F 88% 30.20 in 9.0 miles SSE 5.8 mph - N/A   Overcast
10:36 PM 51.8°F 48.2°F 88% 30.20 in 9.0 miles SSE 5.8 mph - 0.00 in   Overcast
10:50 PM 51.8°F 48.2°F 88% 30.19 in 8.0 miles SSE 6.9 mph - 0.00 in   Overcast
10:53 PM 51.1°F 48.9°F 92% 30.21 in 7.0 miles SSE 8.1 mph - 0.01 in   Overcast
11:22 PM 51.8°F 50.0°F 94% 30.20 in 8.0 miles SSE 4.6 mph - 0.02 in Rain Light Rain
11:37 PM 51.8°F 50.0°F 94% 30.20 in 10.0 miles South 5.8 mph - 0.02 in   Mostly Cloudy
11:53 PM 51.1°F 48.9°F 92% 30.21 in 10.0 miles SSE 5.8 mph - 0.02 in   Mostly Cloudy
Moon Phase
Nov. 12 Nov. 13 Nov. 20 Nov. 28 Dec. 06
Sunrise:07:15 AM (PST) Moon Rise:05:44 AM (PST)11/12
Sunset:04:43 PM (PST) Moon Set:03:54 PM (PST)11/12

Copyright © 2014 The Weather Underground, Inc.